KD8ILV Weather Reports


time (UTC)temp
C
wind
direction
speed
KPH
gust
KPH
rain 1hr
cm
rain 24hr
cm
rain mn
cm
humidity
%
barometer
mb
20260902212555 33 0 0.0 1.6 0.00 0.00 0.00 56 1018.2
20260902212053 33 0 0.0 1.6 0.00 0.00 0.00 56 1018.2
20260902211558 33 0 0.0 1.6 0.00 0.00 0.00 53 1018.2
20260902211053 34 163 0.0 1.6 0.00 0.00 0.00 53 1018.2
20260902210557 34 0 0.0 0.0 0.00 0.00 0.00 52 1018.1
20260902205556 34 0 0.0 0.0 0.00 0.00 0.00 54 1018.3
20260902205053 35 0 0.0 1.6 0.00 0.00 0.00 51 1018.3
20260902204601 35 0 0.0 1.6 0.00 0.00 0.00 53 1018.3
20260902204054 35 0 0.0 3.2 0.00 0.00 0.00 51 1018.4
20260902203553 35 163 0.0 3.2 0.00 0.00 0.00 52 1018.4
20260902203103 35 0 0.0 3.2 0.00 0.00 0.00 51 1018.3
20260902202553 35 163 0.0 3.2 0.00 0.00 0.00 50 1018.4
20260902202053 35 0 0.0 3.2 0.00 0.00 0.00 52 1018.4
20260902201609 35 0 0.0 3.2 0.00 0.00 0.00 50 1018.4
20260902201054 36 163 0.0 3.2 0.00 0.00 0.00 51 1018.5
20260902200553 36 163 0.0 3.2 0.00 0.00 0.00 52 1018.5
20260902200110 36 0 0.0 3.2 0.00 0.00 0.00 50 1018.5
20260902195552 36 163 0.0 3.2 0.00 0.00 0.00 49 1018.7
20260902195053 36 163 0.0 3.2 0.00 0.00 0.00 51 1018.6
20260902194605 36 163 0.0 1.6 0.00 0.00 0.00 50 1018.8
20260902194052 36 163 0.0 1.6 0.00 0.00 0.00 51 1018.8
20260902193553 36 163 0.0 1.6 0.00 0.00 0.00 50 1018.8
20260902193107 35 163 0.0 4.8 0.00 0.00 0.00 54 1018.8
20260902192557 35 0 0.0 4.8 0.00 0.00 0.00 51 1019.1
20260902192053 36 163 0.0 4.8 0.00 0.00 0.00 50 1018.9
20260902191633 36 163 0.0 1.6 0.00 0.00 0.00 48 1019.1
20260902191057 36 163 0.0 1.6 0.00 0.00 0.00 49 1019.2
20260902190558 36 163 0.0 3.2 0.00 0.00 0.00 50 1019.3
20260902185553 36 163 0.0 3.2 0.00 0.00 0.00 51 1019.3
20260902185055 36 163 0.0 3.2 0.00 0.00 0.00 50 1019.4
20260902184603 36 163 0.0 3.2 0.00 0.00 0.00 51 1019.3
20260902184053 35 163 0.0 3.2 0.00 0.00 0.00 51 1019.3
20260902183557 35 163 0.0 1.6 0.00 0.00 0.00 52 1019.4
20260902183124 36 0 0.0 3.2 0.00 0.00 0.00 50 1019.4
20260902182552 36 0 0.0 3.2 0.00 0.00 0.00 50 1019.5
20260902182053 36 163 0.0 3.2 0.00 0.00 0.00 50 1019.5
20260902181612 36 163 0.0 3.2 0.00 0.00 0.00 50 1019.5
20260902181053 36 163 0.0 3.2 0.00 0.00 0.00 50 1019.5
20260902180550 36 163 0.0 3.2 0.00 0.00 0.00 50 1019.5
20260902180105 36 0 0.0 4.8 0.00 0.00 0.00 51 1019.6
20260902175553 35 0 0.0 4.8 0.00 0.00 0.00 51 1019.7
20260902175053 35 163 0.0 4.8 0.00 0.00 0.00 51 1019.7
20260902174605 35 163 0.0 4.8 0.00 0.00 0.00 52 1019.8
20260902174053 35 163 0.0 4.8 0.00 0.00 0.00 52 1019.8
20260902173553 35 0 0.0 4.8 0.00 0.00 0.00 54 1019.8
20260902173114 35 163 1.6 4.8 0.00 0.00 0.00 54 1019.9
20260902172552 35 163 0.0 3.2 0.00 0.00 0.00 53 1020.0
20260902172053 35 0 0.0 3.2 0.00 0.00 0.00 55 1020.0
20260902171618 35 0 0.0 3.2 0.00 0.00 0.00 56 1020.0
20260902171056 35 0 0.0 3.2 0.00 0.00 0.00 56 1020.0
20260902170552 35 163 0.0 3.2 0.00 0.00 0.00 57 1020.0
20260902170104 35 163 0.0 3.2 0.00 0.00 0.00 56 1020.2
20260902165553 35 0 0.0 3.2 0.00 0.00 0.00 58 1020.3
20260902165053 34 0 0.0 0.0 0.00 0.00 0.00 58 1020.3
20260902164606 35 0 0.0 0.0 0.00 0.00 0.00 56 1020.3
20260902164054 35 0 0.0 3.2 0.00 0.00 0.00 59 1020.3
20260902163554 34 163 0.0 3.2 0.00 0.00 0.00 58 1020.2
20260902163105 34 163 0.0 3.2 0.00 0.00 0.00 59 1020.4
20260902162554 34 0 0.0 3.2 0.00 0.00 0.00 58 1020.4
20260902162055 34 0 0.0 0.0 0.00 0.00 0.00 59 1020.5
20260902161605 33 0 0.0 3.2 0.00 0.00 0.00 58 1020.4
20260902161053 33 0 0.0 3.2 0.00 0.00 0.00 58 1020.5
20260902160557 33 0 0.0 3.2 0.00 0.00 0.00 58 1020.5
20260902160121 33 0 0.0 3.2 0.00 0.00 0.00 59 1020.5
20260902155553 33 163 0.0 1.6 0.00 0.00 0.00 58 1020.5
20260902155055 33 163 0.0 1.6 0.00 0.00 0.00 60 1020.6
20260902154618 33 163 0.0 3.2 0.00 0.00 0.00 58 1020.7
20260902154055 33 163 0.0 3.2 0.00 0.00 0.00 59 1020.7
20260902153554 33 163 0.0 1.6 0.00 0.00 0.00 61 1020.6
20260902153107 33 0 0.0 0.0 0.00 0.00 0.00 61 1020.8
20260902152553 33 0 0.0 0.0 0.00 0.00 0.00 61 1020.8
20260902152057 32 0 0.0 0.0 0.00 0.00 0.00 62 1020.8
20260902151600 32 0 0.0 0.0 0.00 0.00 0.00 61 1020.8
20260902151055 32 0 0.0 0.0 0.00 0.00 0.00 63 1020.8
20260902150553 32 0 0.0 0.0 0.00 0.00 0.00 62 1020.8
20260902150104 32 0 0.0 0.0 0.00 0.00 0.00 63 1020.8
20260902145553 32 0 0.0 0.0 0.00 0.00 0.00 64 1020.8
20260902145054 32 0 0.0 0.0 0.00 0.00 0.00 65 1020.8
20260902144600 31 0 0.0 0.0 0.00 0.00 0.00 65 1020.7
20260902144052 31 0 0.0 0.0 0.00 0.00 0.00 66 1020.8
20260902143554 31 0 0.0 0.0 0.00 0.00 0.00 65 1020.8
20260902143100 31 0 0.0 0.0 0.00 0.00 0.00 65 1020.7
20260902142553 31 0 0.0 0.0 0.00 0.00 0.00 68 1020.7
20260902142052 31 0 0.0 0.0 0.00 0.00 0.00 66 1020.6
20260902141600 30 0 0.0 0.0 0.00 0.00 0.00 67 1020.7
20260902141054 30 0 0.0 0.0 0.00 0.00 0.00 68 1020.7
20260902140553 30 0 0.0 0.0 0.00 0.00 0.00 67 1020.7
20260902140100 30 0 0.0 0.0 0.00 0.00 0.00 68 1020.8
20260902135552 30 0 0.0 0.0 0.00 0.00 0.00 67 1020.8
20260902135052 30 0 0.0 0.0 0.00 0.00 0.00 69 1020.8
20260902134603 30 0 0.0 0.0 0.00 0.00 0.00 70 1020.8
20260902134052 29 0 0.0 0.0 0.00 0.00 0.00 70 1020.8
20260902133555 29 0 0.0 0.0 0.00 0.00 0.00 70 1020.8
20260902133105 29 0 0.0 0.0 0.00 0.00 0.00 69 1020.8
20260902132554 29 0 0.0 0.0 0.00 0.00 0.00 70 1020.7
20260902132052 29 0 0.0 0.0 0.00 0.00 0.00 71 1020.7
20260902131602 28 0 0.0 0.0 0.00 0.00 0.00 71 1020.8
20260902131054 28 0 0.0 0.0 0.00 0.00 0.00 72 1020.8
20260902130553 28 0 0.0 1.6 0.00 0.00 0.00 73 1020.7
20260902125555 28 163 0.0 1.6 0.00 0.00 0.00 74 1020.6
20260902125055 28 163 0.0 0.0 0.00 0.00 0.00 75 1020.6
20260902124559 28 0 0.0 0.0 0.00 0.00 0.00 75 1020.6
20260902124058 27 0 0.0 0.0 0.00 0.00 0.00 75 1020.6
20260902123552 27 0 0.0 0.0 0.00 0.00 0.00 76 1020.5
20260902123105 27 0 0.0 0.0 0.00 0.00 0.00 77 1020.5
20260902122552 26 0 0.0 0.0 0.00 0.00 0.00 78 1020.4
20260902122054 26 0 0.0 0.0 0.00 0.00 0.00 80 1020.4
20260902121605 26 0 0.0 0.0 0.00 0.00 0.00 81 1020.5
20260902121054 25 0 0.0 0.0 0.00 0.00 0.00 83 1020.3
20260902120554 25 0 0.0 0.0 0.00 0.00 0.00 85 1020.2
20260902120105 24 0 0.0 0.0 0.00 0.00 0.00 86 1020.3
20260902115554 23 0 0.0 0.0 0.00 0.00 0.00 87 1020.2
20260902115054 23 0 0.0 0.0 0.00 0.00 0.00 88 1020.2
20260902114600 23 0 0.0 0.0 0.00 0.00 0.00 89 1020.1
20260902114055 22 0 0.0 0.0 0.00 0.00 0.00 89 1020.1
20260902113554 22 0 0.0 0.0 0.00 0.00 0.00 89 1020.0
20260902113103 22 0 0.0 0.0 0.00 0.00 0.00 89 1019.9
20260902112645 22 0 0.0 0.0 0.00 0.00 0.00 89 1019.9
20260902112055 22 0 0.0 0.0 0.00 0.00 0.00 89 1019.8
20260902111606 22 0 0.0 0.0 0.00 0.00 0.00 89 1019.8
20260902111053 22 0 0.0 0.0 0.00 0.00 0.00 89 1019.8
20260902110553 22 0 0.0 0.0 0.00 0.00 0.00 89 1019.8
20260902110059 22 0 0.0 0.0 0.00 0.00 0.00 89 1019.9
20260902105552 22 0 0.0 0.0 0.00 0.00 0.00 89 1019.8
20260902105053 22 0 0.0 0.0 0.00 0.00 0.00 89 1019.8
20260902104614 22 0 0.0 0.0 0.00 0.00 0.00 88 1019.9
20260902104055 22 0 0.0 0.0 0.00 0.00 0.00 89 1019.8
20260902103552 22 0 0.0 0.0 0.00 0.00 0.00 89 1019.9
20260902103102 22 0 0.0 0.0 0.00 0.00 0.00 88 1019.8
20260902102555 22 0 0.0 0.0 0.00 0.00 0.00 88 1019.8
20260902102052 22 0 0.0 0.0 0.00 0.00 0.00 89 1019.8
20260902101559 22 0 0.0 0.0 0.00 0.00 0.00 89 1019.7
20260902101054 22 0 0.0 0.0 0.00 0.00 0.00 89 1019.8
20260902100553 22 0 0.0 0.0 0.00 0.00 0.00 89 1019.6
20260902100059 22 0 0.0 0.0 0.00 0.00 0.00 89 1019.5
20260902095554 22 0 0.0 0.0 0.00 0.00 0.00 89 1019.6
20260902095054 22 0 0.0 0.0 0.00 0.00 0.00 89 1019.6
20260902094602 22 0 0.0 0.0 0.00 0.00 0.00 89 1019.5
20260902094052 23 0 0.0 0.0 0.00 0.00 0.00 88 1019.5
20260902093551 23 0 0.0 0.0 0.00 0.00 0.00 88 1019.5
20260902093107 23 0 0.0 0.0 0.00 0.00 0.00 89 1019.6
20260902092554 23 0 0.0 0.0 0.00 0.00 0.00 89 1019.7
20260902092056 23 0 0.0 0.0 0.00 0.00 0.00 89 1019.6
20260902091606 22 0 0.0 0.0 0.00 0.00 0.00 89 1019.5
20260902091052 22 0 0.0 0.0 0.00 0.00 0.00 89 1019.5
20260902090553 23 0 0.0 0.0 0.00 0.00 0.00 88 1019.5
20260902090120 23 0 0.0 0.0 0.00 0.00 0.00 88 1019.5
20260902085557 23 0 0.0 0.0 0.00 0.00 0.00 88 1019.4
20260902085054 23 0 0.0 0.0 0.00 0.00 0.00 88 1019.3
20260902084604 23 0 0.0 0.0 0.00 0.00 0.00 88 1019.3
20260902084052 23 0 0.0 0.0 0.00 0.00 0.00 88 1019.3
20260902083552 23 0 0.0 0.0 0.00 0.00 0.00 87 1019.2
20260902083106 23 0 0.0 0.0 0.00 0.00 0.00 87 1019.1
20260902082557 23 0 0.0 0.0 0.00 0.00 0.00 87 1019.0
20260902082053 23 0 0.0 0.0 0.00 0.00 0.00 87 1019.1
20260902081601 23 0 0.0 0.0 0.00 0.00 0.00 87 1019.1
20260902081052 23 0 0.0 0.0 0.00 0.00 0.00 87 1018.9
20260902080553 23 0 0.0 0.0 0.00 0.00 0.00 87 1018.9
20260902075552 23 0 0.0 0.0 0.00 0.00 0.00 86 1018.9
20260902075050 23 0 0.0 0.0 0.00 0.00 0.00 86 1018.9
20260902074605 23 0 0.0 0.0 0.00 0.00 0.00 86 1018.9
20260902074052 23 0 0.0 0.0 0.00 0.00 0.00 86 1018.8
20260902073553 23 0 0.0 0.0 0.00 0.00 0.00 86 1018.9
20260902073102 23 0 0.0 0.0 0.00 0.00 0.00 86 1018.8
20260902072551 23 0 0.0 0.0 0.00 0.00 0.00 86 1018.8
20260902072050 23 0 0.0 0.0 0.00 0.00 0.00 86 1018.9
20260902071557 23 0 0.0 0.0 0.00 0.00 0.00 86 1018.8
20260902071052 23 0 0.0 0.0 0.00 0.00 0.00 86 1018.9
20260902070553 23 0 0.0 0.0 0.00 0.00 0.00 86 1018.8
20260902070108 23 0 0.0 0.0 0.00 0.00 0.00 86 1018.9
20260902065552 23 0 0.0 0.0 0.00 0.00 0.00 86 1018.9
20260902065053 23 0 0.0 0.0 0.00 0.00 0.00 86 1018.9
20260902064600 23 0 0.0 0.0 0.00 0.00 0.00 85 1018.9
20260902064052 23 0 0.0 0.0 0.00 0.00 0.00 85 1018.9
20260902063553 23 0 0.0 0.0 0.00 0.00 0.00 85 1018.9
20260902063059 23 0 0.0 0.0 0.00 0.00 0.00 85 1018.9
20260902062552 24 0 0.0 0.0 0.00 0.00 0.00 85 1018.9
20260902062056 24 0 0.0 0.0 0.00 0.00 0.00 85 1018.9
20260902061054 24 0 0.0 0.0 0.00 0.00 0.00 84 1019.0
20260902060549 24 0 0.0 0.0 0.00 0.00 0.00 84 1019.0
20260902060109 24 0 0.0 0.0 0.00 0.00 0.00 85 1019.0
20260902055552 24 0 0.0 0.0 0.00 0.00 0.00 85 1019.1
20260902055052 24 0 0.0 0.0 0.00 0.00 0.00 85 1019.0
20260902054613 24 0 0.0 0.0 0.00 0.00 0.00 85 1019.0
20260902054052 24 0 0.0 0.0 0.00 0.00 0.00 85 1019.0
20260902053552 24 0 0.0 0.0 0.00 0.00 0.00 85 1019.0
20260902053105 24 0 0.0 0.0 0.00 0.00 0.00 85 1019.0
20260902052553 24 0 0.0 0.0 0.00 0.00 0.00 85 1019.0
20260902052053 24 0 0.0 0.0 0.00 0.00 0.00 86 1019.0
20260902051601 24 0 0.0 0.0 0.00 0.00 0.00 86 1019.2
20260902051054 24 0 0.0 0.0 0.00 0.00 0.00 85 1019.1
20260902050555 24 0 0.0 0.0 0.00 0.00 0.00 85 1019.0
20260902050105 24 0 0.0 0.0 0.00 0.00 0.00 85 1019.1
20260902045552 24 0 0.0 0.0 0.00 0.00 0.00 85 1019.1
20260902045053 24 0 0.0 0.0 0.00 0.00 0.00 84 1019.0
20260902044607 24 0 0.0 0.0 0.00 0.00 0.00 84 1019.1
20260902044053 24 0 0.0 0.0 0.00 0.00 0.00 84 1019.0
20260902043552 24 0 0.0 0.0 0.00 0.00 0.00 84 1019.1
20260902043108 24 0 0.0 0.0 0.00 0.00 0.00 84 1019.1
20260902042552 24 0 0.0 0.0 0.00 0.00 0.00 83 1019.1
20260902042052 25 0 0.0 0.0 0.00 0.00 0.00 83 1019.1
20260902041601 25 0 0.0 0.0 0.00 0.00 0.00 83 1019.2
20260902041052 25 0 0.0 0.0 0.00 0.00 0.00 83 1019.1
20260902040554 25 0 0.0 0.0 0.00 0.00 0.00 83 1019.1
20260902040109 25 0 0.0 0.0 0.00 0.00 0.00 82 1019.1
20260902035552 25 0 0.0 0.0 0.00 0.00 0.00 82 1019.2
20260902035052 25 0 0.0 0.0 0.00 0.00 0.00 82 1019.1
20260902034605 25 0 0.0 0.0 0.00 0.00 0.00 82 1019.2
20260902034053 25 0 0.0 0.0 0.00 0.00 0.00 82 1019.2
20260902033552 25 0 0.0 0.0 0.00 0.00 0.00 81 1019.1
20260902033105 25 0 0.0 0.0 0.00 0.00 0.00 81 1019.1
20260902032553 25 0 0.0 0.0 0.00 0.00 0.00 81 1019.1
20260902032054 25 0 0.0 0.0 0.00 0.00 0.00 81 1019.1
20260902031603 26 0 0.0 0.0 0.00 0.00 0.00 81 1019.0
20260902031053 26 0 0.0 0.0 0.00 0.00 0.00 81 1019.0
20260902030552 26 0 0.0 0.0 0.00 0.00 0.00 81 1019.0
20260902025553 25 0 0.0 0.0 0.00 0.00 0.00 80 1019.0
20260902025054 26 0 0.0 0.0 0.00 0.00 0.00 80 1018.9
20260902024600 26 0 0.0 0.0 0.00 0.00 0.00 80 1018.9
20260902024053 26 0 0.0 0.0 0.00 0.00 0.00 80 1019.1
20260902023551 26 0 0.0 0.0 0.00 0.00 0.00 80 1019.0
20260902023109 26 0 0.0 0.0 0.00 0.00 0.00 80 1019.0
20260902022553 26 0 0.0 0.0 0.00 0.00 0.00 80 1019.0
20260902022052 26 0 0.0 0.0 0.00 0.00 0.00 80 1019.0
20260902021603 26 0 0.0 0.0 0.00 0.00 0.00 80 1019.1
20260902021052 26 0 0.0 0.0 0.00 0.00 0.00 80 1019.0
20260902020552 26 0 0.0 0.0 0.00 0.00 0.00 80 1019.1
20260902020059 26 0 0.0 0.0 0.00 0.00 0.00 80 1019.2
20260902015554 26 0 0.0 0.0 0.00 0.00 0.00 80 1019.1
20260902015052 26 0 0.0 0.0 0.00 0.00 0.00 79 1019.0
20260902014602 26 0 0.0 0.0 0.00 0.00 0.00 79 1019.1
20260902014051 26 0 0.0 0.0 0.00 0.00 0.00 79 1019.1
20260902013554 26 0 0.0 0.0 0.00 0.00 0.00 78 1019.0
20260902013101 26 0 0.0 0.0 0.00 0.00 0.00 78 1019.0
20260902012554 26 0 0.0 0.0 0.00 0.00 0.00 78 1018.9
20260902012053 27 0 0.0 0.0 0.00 0.00 0.00 78 1018.8
20260902011601 27 0 0.0 0.0 0.00 0.00 0.00 77 1018.8
20260902011054 27 0 0.0 0.0 0.00 0.00 0.00 77 1018.7
20260902010554 27 0 0.0 0.0 0.00 0.00 0.00 77 1018.7
20260902010112 27 0 0.0 0.0 0.00 0.00 0.00 76 1018.6
20260902005552 27 0 0.0 0.0 0.00 0.00 0.00 76 1018.6
20260902005054 27 0 0.0 0.0 0.00 0.00 0.00 75 1018.6
20260902004559 27 0 0.0 0.0 0.00 0.00 0.00 76 1018.5
20260902004054 27 0 0.0 0.0 0.00 0.00 0.00 75 1018.4
20260902003554 27 0 0.0 0.0 0.00 0.00 0.00 74 1018.5
20260902003104 27 0 0.0 0.0 0.00 0.00 0.00 73 1018.5
20260902002556 28 0 0.0 0.0 0.00 0.00 0.00 73 1018.5
20260902002055 28 0 0.0 0.0 0.00 0.00 0.00 72 1018.5
20260902001620 28 0 0.0 0.0 0.00 0.00 0.00 71 1018.5
20260902001055 28 0 0.0 0.0 0.00 0.00 0.00 70 1018.6
20260902000551 28 0 0.0 0.0 0.00 0.00 0.00 69 1018.6
20260902000107 29 0 0.0 0.0 0.00 0.00 0.00 68 1018.6
20260901235552 29 0 0.0 0.0 0.00 0.00 0.00 67 1018.6
20260901235053 29 0 0.0 0.0 0.00 0.00 0.00 67 1018.6
20260901234604 30 0 0.0 0.0 0.00 0.00 0.00 66 1018.7
20260901234054 30 0 0.0 0.0 0.00 0.00 0.00 66 1018.7
20260901233554 30 0 0.0 0.0 0.00 0.00 0.00 65 1018.7
20260901233102 30 0 0.0 0.0 0.00 0.00 0.00 64 1018.7
20260901232554 30 0 0.0 0.0 0.00 0.00 0.00 64 1018.8
20260901232057 30 0 0.0 0.0 0.00 0.00 0.00 64 1018.8
20260901231607 30 0 0.0 0.0 0.00 0.00 0.00 64 1018.9
20260901231052 30 0 0.0 0.0 0.00 0.00 0.00 64 1018.9
20260901230552 31 0 0.0 0.0 0.00 0.00 0.00 63 1018.9
20260901230101 31 0 0.0 0.0 0.00 0.00 0.00 63 1018.8
20260901225553 31 0 0.0 0.0 0.00 0.00 0.00 61 1018.8
20260901225054 31 0 0.0 0.0 0.00 0.00 0.00 60 1018.8
20260901224602 31 0 0.0 0.0 0.00 0.00 0.00 59 1018.8
20260901224053 31 0 0.0 0.0 0.00 0.00 0.00 60 1018.8
20260901223552 31 0 0.0 0.0 0.00 0.00 0.00 60 1018.8
20260901223103 31 0 0.0 0.0 0.00 0.00 0.00 59 1018.7
20260901222554 31 0 0.0 0.0 0.00 0.00 0.00 59 1018.7
20260901222054 31 0 0.0 0.0 0.00 0.00 0.00 57 1018.7
20260901221624 32 0 0.0 0.0 0.00 0.00 0.00 56 1018.6
20260901221055 32 0 0.0 0.0 0.00 0.00 0.00 58 1018.7
20260901220552 32 0 0.0 0.0 0.00 0.00 0.00 57 1018.8
20260901220117 32 0 0.0 0.0 0.00 0.00 0.00 56 1018.6
20260901215552 32 0 0.0 1.6 0.00 0.00 0.00 56 1018.6
20260901215053 32 163 0.0 1.6 0.00 0.00 0.00 56 1018.6
20260901214603 32 0 0.0 1.6 0.00 0.00 0.00 56 1018.6
20260901214053 32 0 0.0 1.6 0.00 0.00 0.00 56 1018.5
20260901213552 32 163 0.0 0.0 0.00 0.00 0.00 55 1018.6
20260901213101 33 0 0.0 6.4 0.00 0.00 0.00 55 1018.6